Regional Weather Roundup
Issued by NWS

Home | Current Version | Previous Version | Graphics & Text | Print | Product List | Glossary On
Versions: 1 2 3 4 5 6 7 8 9 10 11 12 13 14 15 16 17 18 19 20 21 22 23 24 25 26 27 28 29 30 31 32 33 34 35 36 37 38 39 40 41 42 43 44 45 46 47 48 49 50
000
ASUS43 KLMK 192310
RWRKY
KENTUCKY REGIONAL WEATHER ROUNDUP
NATIONAL WEATHER SERVICE LOUISVILLE KY
700 PM EDT TUE AUG 19 2014

NOTE "FAIR" INDICATES FEW OR NO CLOUDS BELOW 12,000 FEET
WITH NO SIGNIFICANT WEATHER AND/OR OBSTRUCTIONS TO VISIBILITY.

KYZ001>023-026-027-061>063-070>075-200000-
WESTERN AND SOUTH CENTRAL KENTUCKY

CITY           SKY/WX    TMP DP  RH WIND       PRES   REMARKS
PADUCAH        PTSUNNY   81  74  79 S3        29.81R
HENDERSON      CLOUDY    82  73  74 SW6       29.78F
OWENSBORO      PTSUNNY   85  76  74 SW6       29.80S HX  94
HOPKINSVILLE   PTSUNNY   88  75  64 SW13      29.84R HAZE    HX  98
BOWLING GREEN  PTSUNNY   87  69  54 SW6       29.82F HX  91
GLASGOW        MOSUNNY   85  69  59 S3        29.84F
$$

KYZ024-025-028>034-038-045-046-053-200000-
NORTH CENTRAL KENTUCKY

CITY           SKY/WX    TMP DP  RH WIND       PRES   REMARKS
LOUISVILLE/SDF PTSUNNY   86  68  54 SW9       29.81S
LOUISVILLE/LOU MOSUNNY   85  68  56 S8        29.82S
FORT KNOX      PTSUNNY   84  71  66 S3        29.82F
$$

KYZ035>037-039>044-047>052-055>060-089>105-200000-
NORTHEAST KENTUCKY

CITY           SKY/WX    TMP DP  RH WIND       PRES   REMARKS
LEXINGTON      SUNNY     85  69  58 SW8       29.86R
COVINGTON      PTSUNNY   83  66  56 S6        29.82S
FRANKFORT      SUNNY     84  69  60 W5        29.84R
$$

KYZ054-064>069-076>088-106>120-200000-
SOUTHEAST KENTUCKY

CITY           SKY/WX    TMP DP  RH WIND       PRES   REMARKS
JACKSON        SUNNY     82  69  64 W3        29.89R
LONDON         SUNNY     84  68  58 W7        29.90R
SOMERSET       SUNNY     82  68  61 CALM      29.88F
MIDDLESBORO    SUNNY     84  68  58 CALM      29.89S
MONTICELLO     CLEAR     84  72  67 CALM      29.88F
$$




USA.gov is the U.S. government's official web portal to all federal, state and local government web resources and services.